Location: Bois Neuf
(42.7667°N, 0.6333°E)
Time: 22:27:09
(UTC+00:00)

Cosmos 1937 Rocket - Pass Details

Date: 28 September 2020
Orbit: 747 x 779 km, 74.0° (Epoch: 26 October)

Event Time Altitude Azimuth Distance (km) Brightness Sun altitude
Rises 02:56:25 0° 341° (NNW) 3,203 6.9 -31.7°
Reaches altitude 10° 02:58:47 10° 343° (NNW) 2,274 6.1 -31.3°
Enters shadow 02:59:27 14° 344° (NNW) 2,018 5.8 -31.2°
